Home > Weather > Biratnagar > Past weeks

Flag for Nepal Weather for the Past 2 Weeks in Biratnagar, Nepal

Now
59 °F

Fog.


Feels Like: 59 °F
Forecast: 74 / 90 °F
Wind: No wind

Location: Kathmandu Airport

Current Time: May 5, 2016 at 4:11:09 AM

Latest Report: May 5, 2016 at 3:35 AM


Visibility: 2 mi

Pressure: 30.01 "Hg

Humidity: 94%

Dew Point: 57 °F

Location of BiratnagarLocation

Historic Weather in Biratnagar — Graph

°F

Biratnagar Temperature Yesterday

Maximum temperature yesterday: 79 °F (at 11:05 AM)
Minimum temperature yesterday: 59 °F (at 3:35 AM)
Average temperature yesterday: 65 °F

High & Low Weather Summary for the Past Weeks

 TemperatureHumidityPressure
High90 °F (Apr 20, 12:35 PM)94% (May 5, 12:05 AM)30.07 "Hg (May 5, 12:05 AM)
Low55 °F (Apr 24, 5:35 AM)7% (Apr 30, 12:35 PM)29.68 "Hg (Apr 23, 4:05 PM)
Average74 °F45%29.91 "Hg
* Reported Apr 20 12:05 AM — May 5 12:05 AM, Biratnagar, Weather by CustomWeather, © 2016

Note: Actual official high and low records may vary slightly from our data, if they occured in-between our weather recording intervals... More about our weather records

Advertising

Biratnagar Weather History for the Previous 24 Hours

Scroll right to see more
 ConditionsComfort  
Time TempWeatherWind HumidityBarometerVisibility
12:05 AM
Thu, May 5
59 °FFog.No wind94%30.04 "Hg2 mi
11:35 PM
Wed, May 4
61 °FFog.3 mph88%30.04 "Hg2 mi
11:05 PM61 °FFog.No wind88%30.07 "Hg2 mi
10:35 PM61 °FFog.3 mph88%30.07 "Hg2 mi
10:05 PM61 °FFog.No wind88%30.04 "Hg3 mi
9:35 PM61 °FPassing clouds.3 mph88%30.04 "Hg4 mi
9:05 PM61 °FPassing clouds.2 mph88%30.01 "Hg4 mi
8:05 PM63 °FPassing clouds.No wind83%30.01 "Hg4 mi
7:35 PM63 °FPassing clouds.5 mph83%30.01 "Hg4 mi
7:05 PM63 °FBroken clouds.6 mph83%30.01 "Hg4 mi
6:35 PM63 °FBroken clouds.2 mph83%29.98 "Hg4 mi
6:05 PM63 °FBroken clouds.No wind83%29.98 "Hg4 mi
5:05 PM61 °FBroken clouds.6 mph88%30.01 "Hg4 mi
4:35 PM61 °FThunderstorms. More clouds than sun.3 mph88%30.01 "Hg4 mi
3:35 PM61 °FThunderstorms. More clouds than sun.8 mph83%30.04 "Hg4 mi
3:05 PM64 °FThunderstorms. More clouds than sun.17 mph78%30.04 "Hg3 mi
2:35 PM64 °FThunderstorms. More clouds than sun.7 mph83%29.98 "Hg3 mi
1:35 PM73 °FThunderstorms. Broken clouds.13 mph53%29.98 "Hg3 mi
1:05 PM79 °FBroken clouds.9 mph45%29.95 "Hg4 mi
12:05 PM79 °FPartly sunny.6 mph45%29.98 "Hg4 mi
11:35 AM79 °FPartly sunny.5 mph45%30.01 "Hg4 mi
11:05 AM79 °FPartly sunny.5 mph45%30.01 "Hg4 mi
10:05 AM75 °FPartly sunny.5 mph50%30.04 "Hg3 mi
9:35 AM73 °FPartly sunny.5 mph53%30.04 "Hg3 mi
9:05 AM72 °FPartly sunny.3 mph57%30.04 "Hg3 mi
8:35 AM70 °FPartly sunny.2 mph57%30.04 "Hg3 mi
8:05 AM68 °FPartly sunny.No wind64%30.01 "Hg2 mi
7:35 AM64 °FPartly sunny.2 mph68%30.01 "Hg2 mi
7:05 AM63 °FPartly sunny.3 mph73%30.01 "Hg2 mi
6:35 AM63 °FPartly sunny.5 mph68%29.98 "Hg2 mi
6:05 AM61 °FPassing clouds.3 mph72%29.98 "Hg2 mi
5:35 AM59 °FPassing clouds.3 mph77%29.98 "Hg2 mi
4:35 AM61 °FPassing clouds.3 mph72%29.98 "Hg4 mi
Weather by CustomWeather, © 2016

See weather overviewHow to use our weather pages